Location: Milton Keynes
(52.0316°N, 0.7531°W)
Time: 15:32:34
(UTC+00:00)

N. Korean satellite - Pass Details

Date: 30 January 2019
Orbit: 457 x 510 km, 97.2° (Epoch: 17 February)

Event Time Altitude Azimuth Distance (km) Brightness Sun altitude
Rises 06:58:16 0° 8° (N) 2,610 10.2 -7.6°
Reaches altitude 10° 07:00:26 10° 2° (N) 1,713 9.2 -7.3°
Maximum altitude 07:03:56 43° 290° (WNW) 704 6.9 -6.8°
Drops below altitude 10° 07:07:22 10° 218° (SW) 1,671 9.1 -6.3°
Sets 07:09:27 0° 212° (SSW) 2,537 10.1 -6.0°
